Location: Austin
(30.3000°N, 97.7500°W)
Time: 05:40:45
(UTC-06:00)

Meteor 1-26 Rocket - Pass Details

Date: 03 March 2026
Orbit: 806 x 927 km, 81.3° (Epoch: 5 March)

Event Time Altitude Azimuth Distance (km) Brightness Sun altitude
Rises 19:24:50 0° 351° (N) 3,387 7.5 -12.3°
Reaches altitude 10° 19:27:16 10° 351° (N) 2,435 6.7 -12.9°
Maximum altitude 19:32:46 85° 264° (W) 821 4.2 -14.0°
Drops below altitude 10° 19:38:08 10° 176° (S) 2,379 6.5 -15.2°
Sets 19:40:29 0° 176° (S) 3,303 7.2 -15.7°
